THOR ABLESTAR DEB, 150

Orbit data source: Space-Track

THOR ABLESTAR DEB, 150 is space debris in LEO originally from a launch on Thu, 29 Jun 1961 UTC launched from the Air Force Eastern Test Range (AFETR). Debris objects in space refer to the collection of defunct objects orbiting the Earth. Examples of debris include non-operational satellites, rocket bodies, and fragments generated from explosions, collisions, or faulty payload assembly.

Loading next visibility...
Identifier
150, 1961-015AL
Orbit
LEO
Last TLE update
1 day ago
Origin
Manufacturer
Unknown
Mission
Spacecraft
Bus & Motor
Unknown
Mass
Unknown
Launch date (UTC)
1961-06-29 (64 years ago)
Launch vehicle
Unknown
Launch site
Air Force Eastern Test Range (AFETR)
Object type
Payload
Rocket body
Debris
Shape & HBR
Unknown
Radar Cross Section
Medium (>0.1 m² and <1 m²)

Expand to show TLE details & history

TLE from 1 day ago
0 THOR ABLESTAR DEB
1 00150U 61015AL  25114.69953924  .00000419  00000-0  44753-3 0  9999
2 00150  66.2477 215.1999 0052800 145.3950 215.0575 13.83397174 50600
Epoch: 2025-04-24T16:47Z
Definitive object data (Epoch: 2025-04-24T16:47:20.19Z)
Latitude
-0.00005°
Longitude
110.39853°
Altitude
985.64 km
Speed
7.343 km/s
True Right ascension
14h 20m 47s
True Declination
0° 00' 00"
Sunlit
Object was in full shadow at TLE epoch
Visualization TLE readout
Latitude
48.5893°
Longitude
-102.09444°
Altitude
922.119 km
Speed
7.414 km/s
Apparent Right ascension
19h 21m 30s
Apparent Declination
23° 49' 09"
Sunlit
Object is in daylight
Visualization observer readout
Local Sidereal Time
02:40:46
Azimuth
300.589° NW
Elevation
1.218°
Doppler factor
1
Orbital elements
Apogee altitude
989.019 km
Perigee altitude
911.63 km
Semi-major axis
7,328.462 km
Eccentricity
0.00528
Inclination
66.2477°
RAAN
215.1999°
Arg. of periapsis
145.395°
True anomaly
214.71183°
Mean anomaly
215.0575°
Eccentric anomaly
214.88448°
Mean motion
3.45958 °/min
BSTAR
0.00044753
Orbital period
104.06 mins
Loading maneuver chart data...
Loading SW <> Apogee altitude chart data...

THOR ABLESTAR DEB Visibility forecast

Observer location: undefined°, undefined°

Span
Click to sort rows by Start time (UTC) header in descending order
Start Az.
Max El. time (UTC)
Max El. Az.
Max El.
End time (UTC)
End Az.
10 mins2025-04-26 07:04:00.121Z166.19° S2025-04-26 07:09:00.121Z110.137° ESE26.838°2025-04-26 07:14:00.121Z52.164° ENE
10 mins2025-04-26 08:51:00.121Z237.38° WSW2025-04-26 08:56:00.121Z308.271° NW35.779°2025-04-26 09:01:00.121Z16.02° NNE
9 mins2025-04-26 16:11:00.121Z351.544° N2025-04-26 16:15:00.121Z43.472° NE29.541°2025-04-26 16:20:00.121Z111.414° ESE
9 mins2025-04-26 17:58:00.121Z310.521° NW2025-04-26 18:02:00.121Z258.851° W32.144°2025-04-26 18:07:00.121Z185.891° SSW
|